This is the latest recevied weather packets stored in our database for station/object KE0PRS. If no packets are shown the sender has not sent any weather packets the latest 10 day(s).
| Time | Temp. | Humidity | Pressure | Rain* | Wind** | Luminosity | Snow |
|---|---|---|---|---|---|---|---|
| 1787944551 | 32.78° C | 44% | 1019.1 hPa | 0 mm | - | 772 W/m² | - |
| 1787944247 | 32.22° C | 44% | 1019.4 hPa | 0 mm | - | 817 W/m² | - |
| 1787943946 | 32.22° C | 45% | 1019.3 hPa | 0 mm | - | 917 W/m² | - |
| 1787943642 | 31.67° C | 46% | 1019.4 hPa | 0 mm | - | 846 W/m² | - |
| 1787943342 | 31.67° C | 48% | 1019.4 hPa | 0 mm | - | 916 W/m² | - |
| 1787943037 | 31.11° C | 48% | 1019.5 hPa | 0 mm | - | 772 W/m² | - |
| 1787942737 | 31.67° C | 46% | 1019.7 hPa | 0 mm | - | 405 W/m² | - |
| 1787942433 | 31.67° C | 45% | 1019.5 hPa | 0 mm | - | 288 W/m² | - |
| 1787942132 | 31.67° C | 46% | 1019.7 hPa | 0 mm | - | 811 W/m² | - |
| 1787941828 | 32.22° C | 45% | 1019.6 hPa | 0 mm | - | 745 W/m² | - |
| 1787941527 | 32.22° C | 45% | 1019.7 hPa | 0 mm | - | 846 W/m² | - |
| 1787941222 | 31.67° C | 48% | 1019.8 hPa | 0 mm | - | 846 W/m² | - |
| 1787940916 | 31.67° C | 48% | 1020 hPa | 0 mm | - | 820 W/m² | - |
| 1787940615 | 31.67° C | 46% | 1020 hPa | 0 mm | - | 782 W/m² | - |
| 1787940314 | 31.67° C | 46% | 1020 hPa | 0 mm | - | 675 W/m² | - |
| 1787940014 | 31.67° C | 45% | 1020.1 hPa | 0 mm | - | 738 W/m² | - |
| 1787939713 | 31.67° C | 46% | 1020.1 hPa | 0 mm | - | 742 W/m² | - |
| 1787939413 | 31.67° C | 46% | 1020.1 hPa | 0 mm | - | 720 W/m² | - |
| 1787939109 | 31.67° C | 46% | 1020.1 hPa | 0 mm | - | 722 W/m² | - |
| 1787938808 | 31.67° C | 48% | 1020.2 hPa | 0 mm | - | 718 W/m² | - |
| 1787938502 | 31.11° C | 47% | 1020.6 hPa | 0 mm | - | 712 W/m² | - |
| 1787938198 | 31.11° C | 50% | 1020.3 hPa | 0 mm | - | 701 W/m² | - |
| 1787937893 | 31.11° C | 46% | 1020.4 hPa | 0 mm | - | 697 W/m² | - |
| 1787937589 | 31.11° C | 49% | 1020.4 hPa | 0 mm | - | 690 W/m² | - |
| 1787937284 | 30.56° C | 48% | 1020.6 hPa | 0 mm | - | 678 W/m² | - |
* Rain latest hour (hover to see other rain measurements)
** Current wind speed in m/s (hover to see current wind gust speed)